Weather History for Sauk Centre, MN

Change the Weather History Date:

Wednesday, September 18, 2013

  Actual Average (KGHW) Record (KGHW)
Temperature  
Mean Temperature 64 °F -  
Max Temperature 73 °F 70 °F 91 °F (1998)
Min Temperature 55 °F 46 °F 31 °F (1993)
Degree Days  
Heating Degree Days 1    
Growing Degree Days 14 (Base 50)    
Moisture  
Dew Point 63 °F    
Average Humidity 94    
Maximum Humidity 100    
Minimum Humidity 78    
Precipitation  
Precipitation 0.00 in - - ()
Sea Level Pressure  
Sea Level Pressure 29.75 in    
Wind  
Wind Speed 9 mph (SE)    
Max Wind Speed 16 mph    
Max Gust Speed 21 mph    
Visibility 4 miles    
Events      
Averages and records for this station are not official NWS values.
T = Trace of Precipitation, MM = Missing Value Source: NWS Daily Summary

Daily Weather History Graph

Daily Weather History Graph

Search for Another Location

Airport:

Trip Planner

Search our weather history database for the weather conditions in past years. The results will help you decide how hot, cold, wet, or windy it might be!

Date:

Astronomy

Sep. 18, 2013 Rise Set
Actual Time 7:02 AM CDT 7:24 PM CDT
Civil Twilight 6:32 AM CDT 7:54 PM CDT
Nautical Twilight 5:57 AM CDT 8:29 PM CDT
Astronomical Twilight 5:20 AM CDT 9:05 PM CDT
Moon 6:47 PM CDT (9/18) 6:04 AM CDT (9/18)
Length of Visible Light 13h 21m
Length of Day
12h 22m
Waxing Gibbous, 99% of the Moon is Illuminated
Sep 18
Waxing Gibbous
Sep 19
Full
Sep 26
Last Quarter
Oct 4
New
Oct 11
First Quarter

Hourly Weather History & Observations

Time (CDT) Temp. Dew Point Humidity Pressure Visibility Wind Dir Wind Speed Gust Speed Precip Events Conditions
12:05 AM 55.4 °F 55.4 °F 100% 29.90 in 3.0 mi SSE 10.4 mph - N/A   Overcast
12:25 AM 57.2 °F 55.4 °F 94% 29.89 in 2.0 mi SSE 11.5 mph - N/A   Overcast
12:45 AM 57.2 °F 55.4 °F 94% 29.89 in 1.5 mi SSE 9.2 mph - N/A   Overcast
1:05 AM 57.2 °F 55.4 °F 94% 29.88 in 1.2 mi SSE 9.2 mph - N/A   Overcast
1:25 AM 57.2 °F 57.2 °F 100% 29.87 in 1.0 mi SSE 8.1 mph - N/A   Overcast
1:45 AM 57.2 °F 57.2 °F 100% 29.87 in 0.8 mi SE 8.1 mph - N/A   Overcast
2:05 AM 57.2 °F 57.2 °F 100% 29.87 in 0.5 mi SE 6.9 mph - N/A   Overcast
2:25 AM 57.2 °F 57.2 °F 100% 29.86 in 0.5 mi SE 8.1 mph - N/A   Overcast
2:45 AM 57.2 °F 57.2 °F 100% 29.85 in 0.5 mi SE 9.2 mph - N/A   Overcast
3:05 AM 57.2 °F 57.2 °F 100% 29.85 in 0.5 mi SE 6.9 mph - N/A   Overcast
3:25 AM 57.2 °F 57.2 °F 100% 29.84 in 0.5 mi SE 6.9 mph - N/A   Overcast
3:45 AM 57.2 °F 57.2 °F 100% 29.83 in 1.0 mi SE 5.8 mph - N/A   Overcast
4:05 AM 59.0 °F 57.2 °F 94% 29.82 in 1.0 mi SE 6.9 mph - N/A   Overcast
4:25 AM 59.0 °F 59.0 °F 100% 29.82 in 0.8 mi SE 6.9 mph - N/A   Overcast
4:45 AM 59.0 °F 59.0 °F 100% 29.81 in 0.5 mi SE 6.9 mph - N/A   Overcast
5:05 AM 59.0 °F 59.0 °F 100% 29.81 in 0.5 mi SE 6.9 mph - N/A   Overcast
5:25 AM 59.0 °F 59.0 °F 100% 29.80 in 0.5 mi ESE 8.1 mph - N/A   Overcast
5:45 AM 59.0 °F 59.0 °F 100% 29.79 in 0.8 mi SE 6.9 mph - N/A   Overcast
6:05 AM 59.0 °F 59.0 °F 100% 29.78 in 1.0 mi SE 6.9 mph - N/A   Overcast
6:25 AM 59.0 °F 59.0 °F 100% 29.78 in 1.2 mi SE 5.8 mph - N/A   Overcast
6:45 AM 59.0 °F 59.0 °F 100% 29.78 in 1.2 mi ESE 8.1 mph - N/A   Overcast
7:05 AM 59.0 °F 59.0 °F 100% 29.78 in 1.2 mi ESE 8.1 mph - N/A   Overcast
7:25 AM 59.0 °F 59.0 °F 100% 29.78 in 0.8 mi ESE 5.8 mph - N/A   Overcast
7:45 AM 59.0 °F 59.0 °F 100% 29.78 in 0.8 mi ESE 6.9 mph - N/A   Overcast
8:05 AM 60.8 °F 60.8 °F 100% 29.79 in 0.8 mi SE 5.8 mph - N/A   Overcast
8:25 AM 60.8 °F 60.8 °F 100% 29.79 in 1.0 mi SE 5.8 mph - N/A   Overcast
8:45 AM 60.8 °F 60.8 °F 100% 29.79 in 1.0 mi ESE 5.8 mph - N/A   Overcast
9:05 AM 60.8 °F 60.8 °F 100% 29.79 in 1.2 mi Calm Calm - N/A   Overcast
9:25 AM 60.8 °F 60.8 °F 100% 29.79 in 1.5 mi ESE 5.8 mph - N/A   Overcast
9:45 AM 62.6 °F 62.6 °F 100% 29.78 in 1.5 mi ESE 6.9 mph - N/A   Overcast
10:05 AM 62.6 °F 62.6 °F 100% 29.78 in 1.8 mi SE 8.1 mph - N/A   Overcast
10:25 AM 64.4 °F 64.4 °F 100% 29.77 in 3.0 mi SE 8.1 mph - N/A   Overcast
10:45 AM 64.4 °F 64.4 °F 100% 29.76 in 2.5 mi SE 10.4 mph - N/A   Overcast
11:05 AM 66.2 °F 64.4 °F 94% 29.76 in 1.8 mi SSE 10.4 mph - N/A   Overcast
11:25 AM 66.2 °F 66.2 °F 100% 29.75 in 1.8 mi SE 9.2 mph - N/A   Overcast
11:45 AM 66.2 °F 66.2 °F 100% 29.75 in 2.0 mi SE 9.2 mph - N/A   Overcast
12:05 PM 68.0 °F 66.2 °F 94% 29.74 in 2.5 mi SSE 9.2 mph - N/A   Overcast
12:25 PM 68.0 °F 66.2 °F 94% 29.74 in 3.0 mi SSE 8.1 mph - N/A   Overcast
12:45 PM 69.8 °F 66.2 °F 88% 29.73 in 4.0 mi SSE 10.4 mph - N/A   Overcast
1:05 PM 69.8 °F 66.2 °F 88% 29.73 in 4.0 mi SE 8.1 mph - N/A   Overcast
1:25 PM 69.8 °F 68.0 °F 94% 29.72 in 5.0 mi SSE 11.5 mph - N/A   Overcast
1:45 PM 71.6 °F 68.0 °F 88% 29.71 in 5.0 mi SE 11.5 mph - N/A   Overcast
2:05 PM 71.6 °F 66.2 °F 83% 29.71 in 5.0 mi SE 11.5 mph - N/A   Overcast
2:25 PM 71.6 °F 66.2 °F 83% 29.70 in 7.0 mi SSE 15.0 mph 20.7 mph N/A   Overcast
2:45 PM 71.6 °F 66.2 °F 83% 29.70 in 7.0 mi SSE 16.1 mph 20.7 mph N/A   Overcast
3:05 PM 71.6 °F 66.2 °F 83% 29.70 in 7.0 mi SSE 15.0 mph 20.7 mph N/A   Overcast
3:25 PM 71.6 °F 66.2 °F 83% 29.70 in 7.0 mi SSE 15.0 mph 20.7 mph N/A   Overcast
3:45 PM 71.6 °F 66.2 °F 83% 29.70 in 7.0 mi SE 15.0 mph - N/A   Overcast
4:05 PM 71.6 °F 66.2 °F 83% 29.69 in 7.0 mi SSE 15.0 mph - N/A   Overcast
4:25 PM 71.6 °F 66.2 °F 83% 29.69 in 7.0 mi SSE 12.7 mph 18.4 mph N/A   Overcast
4:45 PM 73.4 °F 66.2 °F 78% 29.68 in 7.0 mi SE 15.0 mph 20.7 mph N/A   Overcast
5:05 PM 73.4 °F 66.2 °F 78% 29.68 in 7.0 mi SE 12.7 mph - N/A   Scattered Clouds
5:25 PM 71.6 °F 66.2 °F 83% 29.68 in 7.0 mi SSE 11.5 mph - N/A   Clear
5:45 PM 73.4 °F 66.2 °F 78% 29.67 in 10.0 mi SE 12.7 mph - N/A   Clear
6:05 PM 73.4 °F 66.2 °F 78% 29.67 in 10.0 mi SE 9.2 mph - N/A   Clear
6:25 PM 73.4 °F 68.0 °F 83% 29.67 in 10.0 mi SE 6.9 mph - N/A   Clear
6:45 PM 71.6 °F 68.0 °F 88% 29.66 in 7.0 mi ESE 6.9 mph - N/A   Clear
7:05 PM 71.6 °F 68.0 °F 88% 29.66 in 7.0 mi ESE 8.1 mph - N/A   Clear
7:25 PM 71.6 °F 68.0 °F 88% 29.66 in 7.0 mi ESE 8.1 mph - N/A   Clear
7:45 PM 69.8 °F 68.0 °F 94% 29.66 in 7.0 mi ESE 8.1 mph - N/A   Clear
8:05 PM 69.8 °F 68.0 °F 94% 29.67 in 7.0 mi East 5.8 mph - N/A   Clear
8:25 PM 69.8 °F 66.2 °F 88% 29.67 in 7.0 mi ESE 8.1 mph - N/A   Clear
8:45 PM 68.0 °F 66.2 °F 94% 29.68 in 7.0 mi ESE 5.8 mph - N/A   Clear
9:05 PM 69.8 °F 66.2 °F 88% 29.68 in 7.0 mi ESE 6.9 mph - N/A   Clear
9:25 PM 69.8 °F 68.0 °F 94% 29.68 in 7.0 mi SE 6.9 mph - N/A   Clear
9:45 PM 69.8 °F 68.0 °F 94% 29.67 in 7.0 mi ESE 8.1 mph - N/A   Clear
10:05 PM 69.8 °F 68.0 °F 94% 29.67 in 7.0 mi SE 9.2 mph - N/A   Clear
10:25 PM 69.8 °F 68.0 °F 94% 29.68 in 7.0 mi SE 6.9 mph - N/A   Clear
10:45 PM 69.8 °F 68.0 °F 94% 29.68 in 5.0 mi ESE 5.8 mph - N/A   Clear
11:05 PM 69.8 °F 68.0 °F 94% 29.69 in 5.0 mi ESE 4.6 mph - N/A   Clear
11:25 PM 69.8 °F 68.0 °F 94% 29.66 in 5.0 mi ESE 6.9 mph - N/A   Clear
11:45 PM 68.0 °F 68.0 °F 100% 29.66 in 3.0 mi ESE 6.9 mph - N/A   Clear